Simultaneous Nadir Overpasses (SNOs) Predictions

Prediction of SNOs between NOAA-20 and AQUA Satellite Orbit:

Table of predicted SNOs for the next 14.0 days since TLE Epoch: 1/14/2023
Index Date (NOAA-20) Time (NOAA-20) Lat,Lon (NOAA-20) SZA (NOAA-20 ) Date (AQUA) Time (AQUA) Lat,Lon (AQUA) SZA (AQUA ) Distance(km) Time Diff (sec)
1 01/16/2023 19:26:37 79.59, 145.90 113.20 01/16/2023 19:27:34 79.59, 146.00 113.14 2.16 57
2 01/16/2023 20:17:14 -79.85, -44.45 67.26 01/16/2023 20:16:53 -79.85, -44.37 67.26 1.68 21
3 01/19/2023 10:52:45 -79.68, 95.21 67.45 01/19/2023 10:53:19 -79.69, 95.31 67.50 1.99 34
4 01/19/2023 11:43:20 79.98, -94.70 112.02 01/19/2023 11:42:36 79.97, -94.83 112.07 2.53 44
5 01/22/2023 02:18:50 79.84, 45.13 111.74 01/22/2023 02:19:00 79.83, 45.01 111.75 2.65 10
6 01/22/2023 03:09:31 -79.97,-146.27 68.52 01/22/2023 03:08:22 -79.98,-146.15 68.49 2.42 69
7 01/24/2023 16:54:22 79.60,-175.88 111.59 01/24/2023 16:55:24 79.61,-175.75 111.51 2.90 62
8 01/24/2023 17:44:59 -79.87, -6.17 68.89 01/24/2023 17:44:43 -79.87, -6.11 68.89 1.19 16
9 01/27/2023 08:20:27 -79.78, 134.20 69.36 01/27/2023 08:21:03 -79.78, 134.16 69.38 0.80 36



Historial Predications of SNOs between NOAA-20 and AQUA
